Time,TemperatureF,DewpointF,PressureIn,WindDirection,WindDirectionDegrees,WindSpeedMPH,WindSpeedGustMPH,Humidity,HourlyPrecipIn,Conditions,Clouds,dailyrainin,SoftwareType,DateUTC
2013-01-26 00:01:00,32.2,16.2,29.60,WNW,292,4.0,7.0,51,0.00,,,0.00,meteohub,2013-01-26 06:01:00,
2013-01-26 00:06:00,32.0,16.0,29.60,WNW,292,5.0,7.0,51,0.00,,,0.00,meteohub,2013-01-26 06:06:00,
2013-01-26 00:11:00,31.8,15.8,29.60,WNW,292,2.0,6.0,51,0.00,,,0.00,meteohub,2013-01-26 06:11:00,
2013-01-26 00:16:00,31.3,15.3,29.60,West,270,4.0,6.0,51,0.00,,,0.00,meteohub,2013-01-26 06:16:00,
2013-01-26 00:21:00,31.1,15.1,29.60,WSW,248,2.0,5.0,51,0.00,,,0.00,meteohub,2013-01-26 06:21:00,
2013-01-26 00:26:00,30.9,15.4,29.60,West,270,3.0,4.0,52,0.00,,,0.00,meteohub,2013-01-26 06:26:00,
2013-01-26 00:31:00,30.6,14.5,29.60,West,270,4.0,4.0,51,0.00,,,0.00,meteohub,2013-01-26 06:31:00,
2013-01-26 00:36:00,30.9,15.4,29.60,West,270,2.0,4.0,52,0.00,,,0.00,meteohub,2013-01-26 06:36:00,
2013-01-26 00:41:00,30.6,15.1,29.60,WNW,292,3.0,5.0,52,0.00,,,0.00,meteohub,2013-01-26 06:41:00,
2013-01-26 00:46:00,30.7,15.3,29.60,West,270,3.0,5.0,52,0.00,,,0.00,meteohub,2013-01-26 06:46:00,
2013-01-26 00:52:00,30.7,15.3,29.60,West,270,2.0,5.0,52,0.00,,,0.00,meteohub,2013-01-26 06:52:00,
2013-01-26 00:57:00,31.1,15.6,29.60,WNW,292,3.0,5.0,52,0.00,,,0.00,meteohub,2013-01-26 06:57:00,
2013-01-26 01:02:00,31.1,15.6,29.60,WNW,292,3.0,6.0,52,0.00,,,0.00,meteohub,2013-01-26 07:02:00,
2013-01-26 01:07:00,31.3,15.8,29.60,West,270,2.0,6.0,52,0.00,,,0.00,meteohub,2013-01-26 07:07:00,
2013-01-26 01:12:00,31.5,15.4,29.60,WNW,292,4.0,5.0,51,0.00,,,0.00,meteohub,2013-01-26 07:12:00,
2013-01-26 01:17:00,31.6,15.6,29.60,NW,315,4.0,6.0,51,0.00,,,0.00,meteohub,2013-01-26 07:17:00,
2013-01-26 01:22:00,31.6,15.6,29.60,NNW,338,3.0,6.0,51,0.00,,,0.00,meteohub,2013-01-26 07:22:00,
2013-01-26 01:27:00,31.8,15.8,29.60,NW,315,4.0,6.0,51,0.00,,,0.00,meteohub,2013-01-26 07:27:00,
2013-01-26 01:32:00,32.0,16.0,29.60,North,0,4.0,8.0,51,0.00,,,0.00,meteohub,2013-01-26 07:32:00,
2013-01-26 01:37:00,31.8,15.3,29.60,NNW,338,4.0,8.0,50,0.00,,,0.00,meteohub,2013-01-26 07:37:00,
2013-01-26 01:42:00,31.8,15.8,29.63,NW,315,5.0,8.0,51,0.00,,,0.00,meteohub,2013-01-26 07:42:00,
2013-01-26 01:47:00,32.0,16.0,29.63,NNW,338,5.0,7.0,51,0.00,,,0.00,meteohub,2013-01-26 07:47:00,
2013-01-26 01:52:00,32.0,16.0,29.63,NW,315,5.0,9.0,51,0.00,,,0.00,meteohub,2013-01-26 07:52:00,
2013-01-26 01:57:00,32.0,16.0,29.60,West,270,5.0,9.0,51,0.00,,,0.00,meteohub,2013-01-26 07:57:00,
2013-01-26 02:02:00,32.0,16.0,29.60,North,0,3.0,9.0,51,0.00,,,0.00,meteohub,2013-01-26 08:02:00,
2013-01-26 02:07:00,32.0,16.0,29.60,NW,315,3.0,9.0,51,0.00,,,0.00,meteohub,2013-01-26 08:07:00,
2013-01-26 02:12:00,31.8,15.8,29.63,NNW,338,5.0,9.0,51,0.00,,,0.00,meteohub,2013-01-26 08:12:00,
2013-01-26 02:17:00,31.6,15.6,29.63,NNW,338,4.0,6.0,51,0.00,,,0.00,meteohub,2013-01-26 08:17:00,
2013-01-26 02:22:00,31.5,15.4,29.63,NNW,338,5.0,6.0,51,0.00,,,0.00,meteohub,2013-01-26 08:22:00,
2013-01-26 02:27:00,31.5,15.4,29.63,NW,315,4.0,6.0,51,0.00,,,0.00,meteohub,2013-01-26 08:27:00,
2013-01-26 02:33:00,31.5,15.4,29.63,NNW,338,5.0,7.0,51,0.00,,,0.00,meteohub,2013-01-26 08:33:00,
2013-01-26 02:38:00,31.5,16.0,29.63,NNW,338,5.0,8.0,52,0.00,,,0.00,meteohub,2013-01-26 08:38:00,
2013-01-26 02:43:00,31.5,16.0,29.60,NW,315,6.0,8.0,52,0.00,,,0.00,meteohub,2013-01-26 08:43:00,
2013-01-26 02:48:00,31.5,16.0,29.60,NNW,338,8.0,8.0,52,0.00,,,0.00,meteohub,2013-01-26 08:48:00,
2013-01-26 02:53:00,31.5,16.0,29.60,NW,315,4.0,9.0,52,0.00,,,0.00,meteohub,2013-01-26 08:53:00,
2013-01-26 02:58:00,31.3,15.8,29.66,NNW,338,3.0,11.0,52,0.00,,,0.00,meteohub,2013-01-26 08:58:00,
2013-01-26 03:03:00,31.1,15.6,29.66,NW,315,6.0,11.0,52,0.00,,,0.00,meteohub,2013-01-26 09:03:00,
2013-01-26 03:08:00,30.7,15.3,29.66,North,0,4.0,9.0,52,0.00,,,0.00,meteohub,2013-01-26 09:08:00,
2013-01-26 03:13:00,30.7,15.6,29.63,North,0,3.0,9.0,53,0.00,,,0.00,meteohub,2013-01-26 09:13:00,
2013-01-26 03:18:00,30.6,15.1,29.63,NNW,338,4.0,9.0,52,0.00,,,0.00,meteohub,2013-01-26 09:18:00,
2013-01-26 03:23:00,30.6,15.4,29.63,NNW,338,6.0,8.0,53,0.00,,,0.00,meteohub,2013-01-26 09:23:00,
2013-01-26 03:28:00,30.4,15.3,29.63,NNW,338,4.0,8.0,53,0.00,,,0.00,meteohub,2013-01-26 09:28:00,
2013-01-26 03:33:00,30.2,15.1,29.63,NNW,338,5.0,7.0,53,0.00,,,0.00,meteohub,2013-01-26 09:33:00,
2013-01-26 03:39:00,30.2,15.6,29.63,North,0,7.0,7.0,54,0.00,,,0.00,meteohub,2013-01-26 09:39:00,
2013-01-26 03:44:00,30.0,15.4,29.63,NNW,338,5.0,7.0,54,0.00,,,0.00,meteohub,2013-01-26 09:44:00,
2013-01-26 03:49:00,29.8,15.3,29.63,North,0,4.0,7.0,54,0.00,,,0.00,meteohub,2013-01-26 09:49:00,
2013-01-26 03:54:00,29.7,15.1,29.63,North,0,6.0,7.0,54,0.00,,,0.00,meteohub,2013-01-26 09:54:00,
2013-01-26 03:59:00,29.5,15.3,29.63,NNW,338,4.0,7.0,55,0.00,,,0.00,meteohub,2013-01-26 09:59:00,
2013-01-26 04:04:00,29.3,15.1,29.63,North,0,6.0,7.0,55,0.00,,,0.00,meteohub,2013-01-26 10:04:00,
2013-01-26 04:09:00,29.1,15.4,29.63,NNW,338,5.0,10.0,56,0.00,,,0.00,meteohub,2013-01-26 10:09:00,
2013-01-26 04:14:00,28.9,15.6,29.63,NNE,22,5.0,10.0,57,0.00,,,0.00,meteohub,2013-01-26 10:14:00,
2013-01-26 04:19:00,28.6,14.9,29.63,North,0,3.0,10.0,56,0.00,,,0.00,meteohub,2013-01-26 10:19:00,
2013-01-26 04:24:00,28.4,15.1,29.63,NNE,22,4.0,10.0,57,0.00,,,0.00,meteohub,2013-01-26 10:24:00,
2013-01-26 04:30:00,28.2,14.5,29.63,North,0,6.0,10.0,56,0.00,,,0.00,meteohub,2013-01-26 10:30:00,
2013-01-26 04:35:00,27.9,13.8,29.63,North,0,9.0,10.0,55,0.00,,,0.00,meteohub,2013-01-26 10:35:00,
2013-01-26 04:40:00,27.7,13.6,29.63,North,0,6.0,10.0,55,0.00,,,0.00,meteohub,2013-01-26 10:40:00,
2013-01-26 04:45:00,27.3,12.9,29.63,NNE,22,9.0,9.0,54,0.00,,,0.00,meteohub,2013-01-26 10:45:00,
2013-01-26 04:50:00,27.0,12.2,29.63,North,0,6.0,12.0,53,0.00,,,0.00,meteohub,2013-01-26 10:50:00,
2013-01-26 04:55:00,26.6,11.3,29.63,North,0,10.0,12.0,52,0.00,,,0.00,meteohub,2013-01-26 10:55:00,
2013-01-26 05:00:00,26.4,11.1,29.63,North,0,5.0,12.0,52,0.00,,,0.00,meteohub,2013-01-26 11:00:00,
2013-01-26 05:05:00,26.2,11.1,29.63,North,0,5.0,11.0,52,0.00,,,0.00,meteohub,2013-01-26 11:05:00,
2013-01-26 05:10:00,26.1,10.9,29.63,NNE,22,9.0,10.0,52,0.00,,,0.00,meteohub,2013-01-26 11:10:00,
2013-01-26 05:15:00,25.7,9.7,29.63,NNW,338,9.0,11.0,50,0.00,,,0.00,meteohub,2013-01-26 11:15:00,
2013-01-26 05:20:00,25.5,8.6,29.63,North,0,10.0,11.0,48,0.00,,,0.00,meteohub,2013-01-26 11:20:00,
2013-01-26 05:25:00,25.3,7.9,29.63,NNE,22,6.0,13.0,47,0.00,,,0.00,meteohub,2013-01-26 11:25:00,
2013-01-26 05:31:00,25.2,7.9,29.66,NNE,22,6.0,13.0,47,0.00,,,0.00,meteohub,2013-01-26 11:31:00,
2013-01-26 05:36:00,25.0,7.7,29.66,NNW,338,6.0,12.0,47,0.00,,,0.00,meteohub,2013-01-26 11:36:00,
2013-01-26 05:41:00,24.8,7.5,29.66,NNE,22,6.0,13.0,47,0.00,,,0.00,meteohub,2013-01-26 11:41:00,
2013-01-26 05:46:00,24.6,7.7,29.66,NNE,22,6.0,13.0,48,0.00,,,0.00,meteohub,2013-01-26 11:46:00,
2013-01-26 05:51:00,24.4,7.5,29.66,North,0,11.0,13.0,48,0.00,,,0.00,meteohub,2013-01-26 11:51:00,
2013-01-26 05:56:00,24.3,7.0,29.66,NNE,22,5.0,11.0,47,0.00,,,0.00,meteohub,2013-01-26 11:56:00,
2013-01-26 06:01:00,23.9,6.6,29.69,NE,45,4.0,11.0,47,0.00,,,0.00,meteohub,2013-01-26 12:01:00,
2013-01-26 06:06:00,23.9,6.6,29.69,NNE,22,6.0,11.0,47,0.00,,,0.00,meteohub,2013-01-26 12:06:00,
2013-01-26 06:11:00,23.7,6.4,29.69,North,0,6.0,11.0,47,0.00,,,0.00,meteohub,2013-01-26 12:11:00,
2013-01-26 06:16:00,23.5,6.3,29.69,NNW,338,4.0,8.0,47,0.00,,,0.00,meteohub,2013-01-26 12:16:00,
2013-01-26 06:21:00,23.4,5.7,29.69,NNE,22,6.0,10.0,46,0.00,,,0.00,meteohub,2013-01-26 12:21:00,
2013-01-26 06:27:00,23.2,5.5,29.66,NNW,338,6.0,11.0,46,0.00,,,0.00,meteohub,2013-01-26 12:27:00,
2013-01-26 06:32:00,23.2,5.5,29.66,North,0,4.0,11.0,46,0.00,,,0.00,meteohub,2013-01-26 12:32:00,
2013-01-26 06:37:00,23.0,5.7,29.66,North,0,3.0,10.0,47,0.00,,,0.00,meteohub,2013-01-26 12:37:00,
2013-01-26 06:42:00,23.0,5.7,29.69,North,0,8.0,9.0,47,0.00,,,0.00,meteohub,2013-01-26 12:42:00,
2013-01-26 06:47:00,22.8,5.7,29.69,NE,45,6.0,8.0,47,0.00,,,0.00,meteohub,2013-01-26 12:47:00,
2013-01-26 06:52:00,22.8,5.7,29.69,NNE,22,3.0,8.0,47,0.00,,,0.00,meteohub,2013-01-26 12:52:00,
2013-01-26 06:57:00,22.8,5.7,29.69,NNW,338,4.0,8.0,47,0.00,,,0.00,meteohub,2013-01-26 12:57:00,
2013-01-26 07:02:00,22.6,5.5,29.69,NNE,22,5.0,6.0,47,0.00,,,0.00,meteohub,2013-01-26 13:02:00,
2013-01-26 07:07:00,22.6,5.5,29.69,NNW,338,7.0,7.0,47,0.00,,,0.00,meteohub,2013-01-26 13:07:00,
2013-01-26 07:12:00,22.6,5.5,29.72,North,0,3.0,7.0,47,0.00,,,0.00,meteohub,2013-01-26 13:12:00,
2013-01-26 07:17:00,22.5,5.4,29.72,North,0,4.0,7.0,47,0.00,,,0.00,meteohub,2013-01-26 13:17:00,
2013-01-26 07:22:00,22.5,5.4,29.72,North,0,3.0,7.0,47,0.00,,,0.00,meteohub,2013-01-26 13:22:00,
2013-01-26 07:27:00,22.5,5.4,29.72,ENE,68,2.0,6.0,47,0.00,,,0.00,meteohub,2013-01-26 13:27:00,
2013-01-26 07:32:00,22.6,5.5,29.72,NNE,22,5.0,6.0,47,0.00,,,0.00,meteohub,2013-01-26 13:32:00,
2013-01-26 07:37:00,22.6,5.5,29.72,NE,45,3.0,6.0,47,0.00,,,0.00,meteohub,2013-01-26 13:37:00,
2013-01-26 07:42:00,22.6,5.5,29.72,North,0,5.0,6.0,47,0.00,,,0.00,meteohub,2013-01-26 13:42:00,
2013-01-26 07:47:00,22.8,5.7,29.72,NNE,22,4.0,6.0,47,0.00,,,0.00,meteohub,2013-01-26 13:47:00,
2013-01-26 07:52:00,23.0,5.7,29.72,NNW,338,2.0,6.0,47,0.00,,,0.00,meteohub,2013-01-26 13:52:00,
2013-01-26 07:57:00,23.2,5.5,29.72,NNE,22,6.0,6.0,46,0.00,,,0.00,meteohub,2013-01-26 13:57:00,
2013-01-26 08:02:00,23.0,5.4,29.72,NNE,22,8.0,8.0,46,0.00,,,0.00,meteohub,2013-01-26 14:02:00,
2013-01-26 08:07:00,23.0,5.4,29.72,NE,45,3.0,9.0,46,0.00,,,0.00,meteohub,2013-01-26 14:07:00,
2013-01-26 08:12:00,23.2,5.0,29.72,ENE,68,6.0,9.0,45,0.00,,,0.00,meteohub,2013-01-26 14:12:00,
2013-01-26 08:17:00,23.2,5.0,29.72,NE,45,6.0,9.0,45,0.00,,,0.00,meteohub,2013-01-26 14:17:00,
2013-01-26 08:22:00,23.2,5.0,29.72,NNE,22,8.0,10.0,45,0.00,,,0.00,meteohub,2013-01-26 14:22:00,
2013-01-26 08:27:00,23.5,5.4,29.75,NE,45,3.0,11.0,45,0.00,,,0.00,meteohub,2013-01-26 14:27:00,
2013-01-26 08:32:00,23.5,5.4,29.75,NE,45,4.0,11.0,45,0.00,,,0.00,meteohub,2013-01-26 14:32:00,
2013-01-26 08:37:00,23.5,5.4,29.75,NNE,22,7.0,10.0,45,0.00,,,0.00,meteohub,2013-01-26 14:37:00,
2013-01-26 08:42:00,24.1,5.4,29.75,NE,45,6.0,10.0,44,0.00,,,0.00,meteohub,2013-01-26 14:42:00,
2013-01-26 08:47:00,24.1,5.9,29.75,NNE,22,3.0,9.0,45,0.00,,,0.00,meteohub,2013-01-26 14:47:00,
2013-01-26 08:52:00,24.1,5.9,29.75,NNE,22,5.0,9.0,45,0.00,,,0.00,meteohub,2013-01-26 14:52:00,
2013-01-26 08:57:00,24.1,5.9,29.72,ENE,68,6.0,9.0,45,0.00,,,0.00,meteohub,2013-01-26 14:57:00,
2013-01-26 09:02:00,24.1,5.9,29.72,ENE,68,4.0,6.0,45,0.00,,,0.00,meteohub,2013-01-26 15:02:00,
2013-01-26 09:07:00,24.3,6.1,29.72,North,0,5.0,6.0,45,0.00,,,0.00,meteohub,2013-01-26 15:07:00,
2013-01-26 09:12:00,24.3,6.1,29.72,NNE,22,5.0,6.0,45,0.00,,,0.00,meteohub,2013-01-26 15:12:00,
2013-01-26 09:17:00,24.3,6.1,29.75,North,0,6.0,6.0,45,0.00,,,0.00,meteohub,2013-01-26 15:17:00,
2013-01-26 09:22:00,24.3,6.1,29.75,NNE,22,6.0,6.0,45,0.00,,,0.00,meteohub,2013-01-26 15:22:00,
2013-01-26 09:27:00,24.4,6.3,29.75,NNE,22,5.0,6.0,45,0.00,,,0.00,meteohub,2013-01-26 15:27:00,
2013-01-26 09:33:00,25.0,6.3,29.75,NNE,22,4.0,6.0,44,0.00,,,0.00,meteohub,2013-01-26 15:33:00,
2013-01-26 09:38:00,24.8,6.4,29.75,NNE,22,2.0,6.0,45,0.00,,,0.00,meteohub,2013-01-26 15:38:00,
2013-01-26 09:43:00,24.8,6.4,29.75,North,0,6.0,7.0,45,0.00,,,0.00,meteohub,2013-01-26 15:43:00,
2013-01-26 09:48:00,25.2,6.3,29.75,NNE,22,3.0,7.0,44,0.00,,,0.00,meteohub,2013-01-26 15:48:00,
2013-01-26 09:53:00,25.5,6.6,29.75,NNE,22,4.0,6.0,44,0.00,,,0.00,meteohub,2013-01-26 15:53:00,
2013-01-26 09:58:00,25.5,6.6,29.72,NE,45,4.0,8.0,44,0.00,,,0.00,meteohub,2013-01-26 15:58:00,
2013-01-26 10:03:00,25.7,6.8,29.72,NE,45,2.0,9.0,44,0.00,,,0.00,meteohub,2013-01-26 16:03:00,
2013-01-26 10:08:00,26.1,7.2,29.72,ENE,68,2.0,9.0,44,0.00,,,0.00,meteohub,2013-01-26 16:08:00,
2013-01-26 10:13:00,26.6,7.7,29.75,NNW,338,3.0,8.0,44,0.00,,,0.00,meteohub,2013-01-26 16:13:00,
2013-01-26 10:19:00,27.0,8.1,29.75,NNE,22,2.0,5.0,44,0.00,,,0.00,meteohub,2013-01-26 16:19:00,
2013-01-26 10:24:00,27.1,8.1,29.75,NNE,22,3.0,5.0,44,0.00,,,0.00,meteohub,2013-01-26 16:24:00,
2013-01-26 10:29:00,27.5,8.4,29.75,NNE,22,4.0,6.0,44,0.00,,,0.00,meteohub,2013-01-26 16:29:00,
2013-01-26 10:34:00,27.9,8.8,29.75,North,0,2.0,6.0,44,0.00,,,0.00,meteohub,2013-01-26 16:34:00,
2013-01-26 10:39:00,28.0,9.0,29.75,NE,45,4.0,6.0,44,0.00,,,0.00,meteohub,2013-01-26 16:39:00,
2013-01-26 10:44:00,28.4,9.3,29.75,NNW,338,3.0,6.0,44,0.00,,,0.00,meteohub,2013-01-26 16:44:00,
2013-01-26 10:49:00,28.8,9.1,29.75,North,0,3.0,6.0,43,0.00,,,0.00,meteohub,2013-01-26 16:49:00,
2013-01-26 10:54:00,29.3,9.7,29.75,NE,45,6.0,6.0,43,0.00,,,0.00,meteohub,2013-01-26 16:54:00,
2013-01-26 10:59:00,29.5,9.3,29.75,NE,45,3.0,6.0,42,0.00,,,0.00,meteohub,2013-01-26 16:59:00,
2013-01-26 11:04:00,29.5,9.3,29.75,ENE,68,5.0,6.0,42,0.00,,,0.00,meteohub,2013-01-26 17:04:00,
2013-01-26 11:10:00,30.0,9.7,29.75,WNW,292,2.0,6.0,42,0.00,,,0.00,meteohub,2013-01-26 17:10:00,
2013-01-26 11:15:00,30.9,10.0,29.75,East,90,3.0,6.0,41,0.00,,,0.00,meteohub,2013-01-26 17:15:00,
2013-01-26 11:20:00,31.6,11.1,29.75,ESE,112,2.0,6.0,42,0.00,,,0.00,meteohub,2013-01-26 17:20:00,
2013-01-26 11:25:00,31.1,10.2,29.75,NE,45,4.0,6.0,41,0.00,,,0.00,meteohub,2013-01-26 17:25:00,
2013-01-26 11:30:00,31.1,10.2,29.75,NNW,338,3.0,6.0,41,0.00,,,0.00,meteohub,2013-01-26 17:30:00,
2013-01-26 11:35:00,31.8,10.8,29.75,NE,45,6.0,6.0,41,0.00,,,0.00,meteohub,2013-01-26 17:35:00,
2013-01-26 11:40:00,31.6,10.6,29.75,ESE,112,3.0,6.0,41,0.00,,,0.00,meteohub,2013-01-26 17:40:00,
2013-01-26 11:45:00,32.4,11.3,29.75,East,90,3.0,6.0,41,0.00,,,0.00,meteohub,2013-01-26 17:45:00,
2013-01-26 11:50:00,32.5,11.5,29.75,ESE,112,3.0,6.0,41,0.00,,,0.00,meteohub,2013-01-26 17:50:00,
2013-01-26 11:55:00,32.7,11.7,29.75,East,90,2.0,6.0,41,0.00,,,0.00,meteohub,2013-01-26 17:55:00,
2013-01-26 12:00:00,32.5,10.9,29.75,South,180,4.0,5.0,40,0.00,,,0.00,meteohub,2013-01-26 18:00:00,
2013-01-26 12:06:00,33.4,12.4,29.75,ENE,68,3.0,5.0,41,0.00,,,0.00,meteohub,2013-01-26 18:06:00,
2013-01-26 12:11:00,32.7,11.1,29.75,ENE,68,4.0,8.0,40,0.00,,,0.00,meteohub,2013-01-26 18:11:00,
2013-01-26 12:16:00,33.6,12.0,29.75,NNE,22,5.0,8.0,40,0.00,,,0.00,meteohub,2013-01-26 18:16:00,
2013-01-26 12:21:00,34.7,12.9,29.75,NE,45,3.0,8.0,40,0.00,,,0.00,meteohub,2013-01-26 18:21:00,
2013-01-26 12:26:00,34.0,11.1,29.72,East,90,6.0,6.0,38,0.00,,,0.00,meteohub,2013-01-26 18:26:00,
2013-01-26 12:31:00,35.1,12.7,29.72,NW,315,3.0,8.0,39,0.00,,,0.00,meteohub,2013-01-26 18:31:00,
2013-01-26 12:36:00,35.6,13.1,29.72,NW,315,3.0,8.0,39,0.00,,,0.00,meteohub,2013-01-26 18:36:00,
2013-01-26 12:42:00,35.1,12.0,29.75,NNW,338,3.0,6.0,38,0.00,,,0.00,meteohub,2013-01-26 18:42:00,
2013-01-26 12:47:00,34.7,11.1,29.75,ENE,68,4.0,6.0,37,0.00,,,0.00,meteohub,2013-01-26 18:47:00,
2013-01-26 12:52:00,35.2,12.2,29.75,ESE,112,2.0,6.0,38,0.00,,,0.00,meteohub,2013-01-26 18:52:00,
2013-01-26 12:57:00,36.3,12.6,29.75,NNE,22,3.0,5.0,37,0.00,,,0.00,meteohub,2013-01-26 18:57:00,
2013-01-26 13:02:00,36.3,12.6,29.75,North,0,4.0,5.0,37,0.00,,,0.00,meteohub,2013-01-26 19:02:00,
2013-01-26 13:07:00,35.6,11.3,29.75,NE,45,2.0,6.0,36,0.00,,,0.00,meteohub,2013-01-26 19:07:00,
2013-01-26 13:12:00,36.1,12.4,29.75,NE,45,3.0,6.0,37,0.00,,,0.00,meteohub,2013-01-26 19:12:00,
2013-01-26 13:17:00,36.3,12.6,29.75,NNE,22,1.0,6.0,37,0.00,,,0.00,meteohub,2013-01-26 19:17:00,
2013-01-26 13:22:00,36.3,12.0,29.75,NE,45,3.0,4.0,36,0.00,,,0.00,meteohub,2013-01-26 19:22:00,
2013-01-26 13:27:00,36.3,12.0,29.75,SSE,158,3.0,4.0,36,0.00,,,0.00,meteohub,2013-01-26 19:27:00,
2013-01-26 13:32:00,36.9,13.1,29.75,WSW,248,2.0,4.0,37,0.00,,,0.00,meteohub,2013-01-26 19:32:00,
2013-01-26 13:37:00,38.1,13.6,29.75,North,0,2.0,4.0,36,0.00,,,0.00,meteohub,2013-01-26 19:37:00,
2013-01-26 13:42:00,38.8,14.2,29.72,ENE,68,4.0,4.0,36,0.00,,,0.00,meteohub,2013-01-26 19:42:00,
2013-01-26 13:47:00,37.4,11.7,29.72,NE,45,6.0,6.0,34,0.00,,,0.00,meteohub,2013-01-26 19:47:00,
2013-01-26 13:52:00,37.0,11.3,29.72,NNE,22,4.0,7.0,34,0.00,,,0.00,meteohub,2013-01-26 19:52:00,
2013-01-26 13:57:00,37.4,11.7,29.72,NNW,338,3.0,7.0,34,0.00,,,0.00,meteohub,2013-01-26 19:57:00,
2013-01-26 14:02:00,36.7,10.9,29.72,North,0,7.0,10.0,34,0.00,,,0.00,meteohub,2013-01-26 20:02:00,
2013-01-26 14:07:00,37.0,11.3,29.72,NNE,22,8.0,10.0,34,0.00,,,0.00,meteohub,2013-01-26 20:07:00,
2013-01-26 14:12:00,37.4,10.9,29.72,NNW,338,4.0,10.0,33,0.00,,,0.00,meteohub,2013-01-26 20:12:00,
2013-01-26 14:17:00,38.1,11.7,29.72,NE,45,5.0,8.0,33,0.00,,,0.00,meteohub,2013-01-26 20:17:00,
2013-01-26 14:22:00,37.8,11.3,29.72,ENE,68,0.0,8.0,33,0.00,,,0.00,meteohub,2013-01-26 20:22:00,
2013-01-26 14:27:00,38.7,12.0,29.72,NNE,22,4.0,6.0,33,0.00,,,0.00,meteohub,2013-01-26 20:27:00,
2013-01-26 14:32:00,38.8,12.2,29.72,WNW,292,3.0,7.0,33,0.00,,,0.00,meteohub,2013-01-26 20:32:00,
2013-01-26 14:37:00,39.7,13.1,29.72,West,270,3.0,7.0,33,0.00,,,0.00,meteohub,2013-01-26 20:37:00,
2013-01-26 14:42:00,39.9,13.3,29.72,WSW,248,0.0,7.0,33,0.00,,,0.00,meteohub,2013-01-26 20:42:00,
2013-01-26 14:47:00,39.4,12.7,29.72,NE,45,2.0,6.0,33,0.00,,,0.00,meteohub,2013-01-26 20:47:00,
2013-01-26 14:52:00,38.8,12.2,29.72,East,90,4.0,5.0,33,0.00,,,0.00,meteohub,2013-01-26 20:52:00,
2013-01-26 14:57:00,38.5,12.0,29.72,SE,135,4.0,5.0,33,0.00,,,0.00,meteohub,2013-01-26 20:57:00,
2013-01-26 15:02:00,37.4,10.9,29.72,East,90,4.0,5.0,33,0.00,,,0.00,meteohub,2013-01-26 21:02:00,
2013-01-26 15:07:00,36.9,10.6,29.72,NE,45,4.0,6.0,33,0.00,,,0.00,meteohub,2013-01-26 21:07:00,
2013-01-26 15:12:00,37.2,11.5,29.72,East,90,2.0,7.0,34,0.00,,,0.00,meteohub,2013-01-26 21:12:00,
2013-01-26 15:17:00,37.4,10.9,29.69,ESE,112,3.0,7.0,33,0.00,,,0.00,meteohub,2013-01-26 21:17:00,
2013-01-26 15:22:00,37.4,10.9,29.69,ESE,112,2.0,6.0,33,0.00,,,0.00,meteohub,2013-01-26 21:22:00,
2013-01-26 15:27:00,37.4,10.9,29.69,East,90,3.0,6.0,33,0.00,,,0.00,meteohub,2013-01-26 21:27:00,
2013-01-26 15:32:00,36.7,10.9,29.69,NE,45,3.0,6.0,34,0.00,,,0.00,meteohub,2013-01-26 21:32:00,
2013-01-26 15:37:00,36.7,10.9,29.69,SE,135,2.0,6.0,34,0.00,,,0.00,meteohub,2013-01-26 21:37:00,
2013-01-26 15:42:00,36.7,10.9,29.69,ESE,112,2.0,6.0,34,0.00,,,0.00,meteohub,2013-01-26 21:42:00,
2013-01-26 15:47:00,36.5,10.9,29.69,ENE,68,2.0,5.0,34,0.00,,,0.00,meteohub,2013-01-26 21:47:00,
2013-01-26 15:52:00,36.0,10.4,29.69,NE,45,3.0,4.0,34,0.00,,,0.00,meteohub,2013-01-26 21:52:00,
2013-01-26 15:57:00,35.8,10.2,29.69,NNE,22,2.0,6.0,34,0.00,,,0.00,meteohub,2013-01-26 21:57:00,
2013-01-26 16:02:00,35.8,10.2,29.69,NE,45,5.0,6.0,34,0.00,,,0.00,meteohub,2013-01-26 22:02:00,
2013-01-26 16:07:00,35.6,10.0,29.69,NE,45,3.0,6.0,34,0.00,,,0.00,meteohub,2013-01-26 22:07:00,
2013-01-26 16:12:00,35.4,9.9,29.69,NNE,22,4.0,6.0,34,0.00,,,0.00,meteohub,2013-01-26 22:12:00,
2013-01-26 16:17:00,35.2,9.7,29.69,East,90,3.0,6.0,34,0.00,,,0.00,meteohub,2013-01-26 22:17:00,
2013-01-26 16:22:00,35.2,9.7,29.69,ENE,68,2.0,6.0,34,0.00,,,0.00,meteohub,2013-01-26 22:22:00,
2013-01-26 16:27:00,35.4,9.9,29.69,North,0,4.0,6.0,34,0.00,,,0.00,meteohub,2013-01-26 22:27:00,
2013-01-26 16:32:00,35.1,9.7,29.69,NE,45,3.0,7.0,34,0.00,,,0.00,meteohub,2013-01-26 22:32:00,
2013-01-26 16:37:00,34.9,9.5,29.69,NNW,338,2.0,7.0,34,0.00,,,0.00,meteohub,2013-01-26 22:37:00,
2013-01-26 16:42:00,35.1,10.2,29.72,NNE,22,3.0,7.0,35,0.00,,,0.00,meteohub,2013-01-26 22:42:00,
2013-01-26 16:47:00,34.9,10.0,29.72,NE,45,4.0,6.0,35,0.00,,,0.00,meteohub,2013-01-26 22:47:00,
2013-01-26 16:52:00,34.5,9.7,29.72,East,90,3.0,5.0,35,0.00,,,0.00,meteohub,2013-01-26 22:52:00,
2013-01-26 16:57:00,34.3,9.7,29.69,NE,45,3.0,5.0,35,0.00,,,0.00,meteohub,2013-01-26 22:57:00,
2013-01-26 17:02:00,34.2,9.5,29.69,NNE,22,3.0,4.0,35,0.00,,,0.00,meteohub,2013-01-26 23:02:00,
2013-01-26 17:07:00,34.0,9.3,29.69,NE,45,3.0,4.0,35,0.00,,,0.00,meteohub,2013-01-26 23:07:00,
2013-01-26 17:12:00,33.8,9.1,29.72,North,0,3.0,4.0,35,0.00,,,0.00,meteohub,2013-01-26 23:12:00,
2013-01-26 17:17:00,33.6,9.5,29.72,NNE,22,3.0,4.0,36,0.00,,,0.00,meteohub,2013-01-26 23:17:00,
2013-01-26 17:22:00,33.3,9.3,29.72,NNE,22,3.0,4.0,36,0.00,,,0.00,meteohub,2013-01-26 23:22:00,
2013-01-26 17:27:00,33.1,9.7,29.72,NE,45,4.0,4.0,37,0.00,,,0.00,meteohub,2013-01-26 23:27:00,
2013-01-26 17:32:00,32.9,9.5,29.72,NNE,22,3.0,4.0,37,0.00,,,0.00,meteohub,2013-01-26 23:32:00,
2013-01-26 17:37:00,32.7,9.3,29.72,NE,45,3.0,4.0,37,0.00,,,0.00,meteohub,2013-01-26 23:37:00,
2013-01-26 17:42:00,32.5,9.1,29.72,NE,45,2.0,4.0,37,0.00,,,0.00,meteohub,2013-01-26 23:42:00,
2013-01-26 17:47:00,32.2,9.5,29.72,ENE,68,1.0,3.0,38,0.00,,,0.00,meteohub,2013-01-26 23:47:00,
2013-01-26 17:52:00,31.6,9.0,29.72,ENE,68,0.0,3.0,38,0.00,,,0.00,meteohub,2013-01-26 23:52:00,
2013-01-26 17:57:00,31.1,8.4,29.72,ENE,68,2.0,3.0,38,0.00,,,0.00,meteohub,2013-01-26 23:57:00,
2013-01-26 18:02:00,31.1,9.1,29.72,NE,45,3.0,3.0,39,0.00,,,0.00,meteohub,2013-01-27 00:02:00,
2013-01-26 18:07:00,31.1,9.1,29.72,NE,45,2.0,3.0,39,0.00,,,0.00,meteohub,2013-01-27 00:07:00,
2013-01-26 18:12:00,31.1,9.7,29.72,NE,45,1.0,3.0,40,0.00,,,0.00,meteohub,2013-01-27 00:12:00,
2013-01-26 18:17:00,30.7,9.3,29.72,ENE,68,1.0,3.0,40,0.00,,,0.00,meteohub,2013-01-27 00:17:00,
2013-01-26 18:22:00,30.6,9.1,29.72,ENE,68,2.0,2.0,40,0.00,,,0.00,meteohub,2013-01-27 00:22:00,
2013-01-26 18:27:00,30.4,9.0,29.72,ENE,68,3.0,3.0,40,0.00,,,0.00,meteohub,2013-01-27 00:27:00,
2013-01-26 18:32:00,30.2,9.3,29.72,ENE,68,3.0,3.0,41,0.00,,,0.00,meteohub,2013-01-27 00:32:00,
2013-01-26 18:37:00,30.0,9.1,29.72,East,90,1.0,3.0,41,0.00,,,0.00,meteohub,2013-01-27 00:37:00,
2013-01-26 18:42:00,29.7,9.0,29.72,East,90,1.0,3.0,41,0.00,,,0.00,meteohub,2013-01-27 00:42:00,
2013-01-26 18:47:00,29.5,9.3,29.72,NE,45,3.0,3.0,42,0.00,,,0.00,meteohub,2013-01-27 00:47:00,
2013-01-26 18:52:00,29.5,9.3,29.72,NE,45,3.0,3.0,42,0.00,,,0.00,meteohub,2013-01-27 00:52:00,
2013-01-26 18:57:00,29.3,9.1,29.75,NE,45,1.0,3.0,42,0.00,,,0.00,meteohub,2013-01-27 00:57:00,
2013-01-26 19:02:00,29.3,9.1,29.75,ENE,68,0.0,3.0,42,0.00,,,0.00,meteohub,2013-01-27 01:02:00,
2013-01-26 19:07:00,29.3,9.1,29.75,East,90,2.0,3.0,42,0.00,,,0.00,meteohub,2013-01-27 01:07:00,
2013-01-26 19:12:00,29.5,9.3,29.75,East,90,2.0,3.0,42,0.00,,,0.00,meteohub,2013-01-27 01:12:00,
2013-01-26 19:17:00,29.5,9.3,29.75,East,90,2.0,3.0,42,0.00,,,0.00,meteohub,2013-01-27 01:17:00,
2013-01-26 19:22:00,29.5,9.3,29.75,ENE,68,2.0,3.0,42,0.00,,,0.00,meteohub,2013-01-27 01:22:00,
2013-01-26 19:27:00,29.5,9.3,29.75,ENE,68,2.0,3.0,42,0.00,,,0.00,meteohub,2013-01-27 01:27:00,
2013-01-26 19:32:00,29.3,9.7,29.75,East,90,1.0,3.0,43,0.00,,,0.00,meteohub,2013-01-27 01:32:00,
2013-01-26 19:37:00,29.1,9.5,29.75,ENE,68,1.0,2.0,43,0.00,,,0.00,meteohub,2013-01-27 01:37:00,
2013-01-26 19:42:00,29.1,9.5,29.75,East,90,2.0,2.0,43,0.00,,,0.00,meteohub,2013-01-27 01:42:00,
2013-01-26 19:47:00,29.1,9.5,29.75,East,90,2.0,3.0,43,0.00,,,0.00,meteohub,2013-01-27 01:47:00,
2013-01-26 19:52:00,29.5,9.9,29.75,ENE,68,1.0,3.0,43,0.00,,,0.00,meteohub,2013-01-27 01:52:00,
2013-01-26 19:57:00,29.5,9.9,29.75,East,90,2.0,4.0,43,0.00,,,0.00,meteohub,2013-01-27 01:57:00,
2013-01-26 20:02:00,29.5,9.9,29.72,NE,45,3.0,4.0,43,0.00,,,0.00,meteohub,2013-01-27 02:02:00,
2013-01-26 20:07:00,29.5,9.9,29.72,East,90,3.0,4.0,43,0.00,,,0.00,meteohub,2013-01-27 02:07:00,
2013-01-26 20:12:00,29.3,9.7,29.72,East,90,2.0,4.0,43,0.00,,,0.00,meteohub,2013-01-27 02:12:00,
2013-01-26 20:17:00,29.3,9.7,29.72,East,90,2.0,4.0,43,0.00,,,0.00,meteohub,2013-01-27 02:17:00,
2013-01-26 20:22:00,29.3,9.7,29.72,East,90,2.0,3.0,43,0.00,,,0.00,meteohub,2013-01-27 02:22:00,
2013-01-26 20:27:00,29.3,9.7,29.72,East,90,1.0,3.0,43,0.00,,,0.00,meteohub,2013-01-27 02:27:00,
2013-01-26 20:32:00,29.1,9.5,29.72,ENE,68,0.0,3.0,43,0.00,,,0.00,meteohub,2013-01-27 02:32:00,
2013-01-26 20:37:00,28.9,9.3,29.72,ENE,68,1.0,3.0,43,0.00,,,0.00,meteohub,2013-01-27 02:37:00,
2013-01-26 20:42:00,28.9,9.9,29.75,NE,45,3.0,3.0,44,0.00,,,0.00,meteohub,2013-01-27 02:42:00,
2013-01-26 20:47:00,28.9,9.9,29.75,NE,45,1.0,3.0,44,0.00,,,0.00,meteohub,2013-01-27 02:47:00,
2013-01-26 20:52:00,28.8,9.7,29.75,NE,45,2.0,3.0,44,0.00,,,0.00,meteohub,2013-01-27 02:52:00,
2013-01-26 20:57:00,28.8,9.7,29.75,NE,45,1.0,3.0,44,0.00,,,0.00,meteohub,2013-01-27 02:57:00,
2013-01-26 21:02:00,28.6,9.5,29.75,NE,45,0.0,3.0,44,0.00,,,0.00,meteohub,2013-01-27 03:02:00,
2013-01-26 21:07:00,28.2,9.7,29.75,ENE,68,3.0,3.0,45,0.00,,,0.00,meteohub,2013-01-27 03:07:00,
2013-01-26 21:12:00,28.2,9.7,29.75,ENE,68,1.0,3.0,45,0.00,,,0.00,meteohub,2013-01-27 03:12:00,
2013-01-26 21:17:00,28.0,9.5,29.75,East,90,1.0,3.0,45,0.00,,,0.00,meteohub,2013-01-27 03:17:00,
2013-01-26 21:22:00,27.9,9.9,29.75,East,90,0.0,3.0,46,0.00,,,0.00,meteohub,2013-01-27 03:22:00,
2013-01-26 21:27:00,27.5,9.5,29.75,ESE,112,0.0,2.0,46,0.00,,,0.00,meteohub,2013-01-27 03:27:00,
2013-01-26 21:32:00,27.5,9.5,29.75,East,90,1.0,2.0,46,0.00,,,0.00,meteohub,2013-01-27 03:32:00,
2013-01-26 21:37:00,27.3,9.3,29.75,East,90,1.0,2.0,46,0.00,,,0.00,meteohub,2013-01-27 03:37:00,
2013-01-26 21:42:00,27.5,9.5,29.72,East,90,2.0,2.0,46,0.00,,,0.00,meteohub,2013-01-27 03:42:00,
2013-01-26 21:47:00,27.5,9.9,29.72,ENE,68,2.0,2.0,47,0.00,,,0.00,meteohub,2013-01-27 03:47:00,
2013-01-26 21:52:00,27.7,10.6,29.72,East,90,3.0,3.0,48,0.00,,,0.00,meteohub,2013-01-27 03:52:00,
2013-01-26 21:57:00,27.9,10.8,29.72,ENE,68,2.0,4.0,48,0.00,,,0.00,meteohub,2013-01-27 03:57:00,
2013-01-26 22:02:00,27.9,10.8,29.72,East,90,2.0,4.0,48,0.00,,,0.00,meteohub,2013-01-27 04:02:00,
2013-01-26 22:07:00,27.7,10.0,29.72,ENE,68,2.0,4.0,47,0.00,,,0.00,meteohub,2013-01-27 04:07:00,
2013-01-26 22:12:00,27.7,10.6,29.72,ENE,68,2.0,4.0,48,0.00,,,0.00,meteohub,2013-01-27 04:12:00,
2013-01-26 22:17:00,27.7,10.6,29.72,East,90,3.0,4.0,48,0.00,,,0.00,meteohub,2013-01-27 04:17:00,
2013-01-26 22:22:00,27.9,10.8,29.72,ESE,112,2.0,4.0,48,0.00,,,0.00,meteohub,2013-01-27 04:22:00,
2013-01-26 22:27:00,27.7,10.6,29.75,East,90,1.0,4.0,48,0.00,,,0.00,meteohub,2013-01-27 04:27:00,
2013-01-26 22:32:00,27.5,10.4,29.75,East,90,1.0,4.0,48,0.00,,,0.00,meteohub,2013-01-27 04:32:00,
2013-01-26 22:37:00,27.5,10.4,29.75,East,90,2.0,4.0,48,0.00,,,0.00,meteohub,2013-01-27 04:37:00,
2013-01-26 22:42:00,27.3,10.8,29.72,East,90,1.0,3.0,49,0.00,,,0.00,meteohub,2013-01-27 04:42:00,
2013-01-26 22:47:00,27.1,10.0,29.72,SE,135,1.0,3.0,48,0.00,,,0.00,meteohub,2013-01-27 04:47:00,
2013-01-26 22:52:00,27.1,10.6,29.72,ESE,112,2.0,3.0,49,0.00,,,0.00,meteohub,2013-01-27 04:52:00,
2013-01-26 22:57:00,27.0,10.4,29.75,SE,135,2.0,3.0,49,0.00,,,0.00,meteohub,2013-01-27 04:57:00,
2013-01-26 23:00:00,27.0,10.4,29.75,East,90,1.0,3.0,49,0.00,,,0.00,meteohub,2013-01-27 05:00:00,
2013-01-26 23:01:00,27.0,10.4,29.75,East,90,0.0,3.0,49,0.00,,,0.00,meteohub,2013-01-27 05:01:00,
2013-01-26 23:03:00,27.0,10.4,29.75,East,90,0.0,3.0,49,0.00,,,0.00,meteohub,2013-01-27 05:03:00,
2013-01-26 23:09:00,26.8,10.2,29.75,East,90,0.0,3.0,49,0.00,,,0.00,meteohub,2013-01-27 05:09:00,
2013-01-26 23:14:00,26.6,10.6,29.72,ESE,112,1.0,2.0,50,0.00,,,0.00,meteohub,2013-01-27 05:14:00,
2013-01-26 23:19:00,26.6,10.6,29.72,ENE,68,1.0,2.0,50,0.00,,,0.00,meteohub,2013-01-27 05:19:00,
2013-01-26 23:24:00,26.6,10.6,29.72,East,90,2.0,2.0,50,0.00,,,0.00,meteohub,2013-01-27 05:24:00,
2013-01-26 23:29:00,26.6,10.9,29.72,ESE,112,1.0,3.0,51,0.00,,,0.00,meteohub,2013-01-27 05:29:00,
2013-01-26 23:34:00,26.6,10.9,29.72,East,90,2.0,3.0,51,0.00,,,0.00,meteohub,2013-01-27 05:34:00,
2013-01-26 23:39:00,26.8,11.1,29.72,East,90,3.0,3.0,51,0.00,,,0.00,meteohub,2013-01-27 05:39:00,
2013-01-26 23:45:00,26.8,11.1,29.72,ENE,68,1.0,3.0,51,0.00,,,0.00,meteohub,2013-01-27 05:45:00,
2013-01-26 23:50:00,26.8,11.1,29.72,East,90,2.0,3.0,51,0.00,,,0.00,meteohub,2013-01-27 05:50:00,
2013-01-26 23:55:00,26.6,10.9,29.72,ENE,68,2.0,4.0,51,0.00,,,0.00,meteohub,2013-01-27 05:55:00,